Location: Newark
(45.6000°N, 12.8833°E)
Time: 21:46:58
(UTC+00:00)

Vanguard 3 - Pass Details

Date: 27 November 2019
Orbit: 508 x 3263 km, 33.3° (Epoch: 11 December)

Event Time Altitude Azimuth Distance (km) Brightness Sun altitude
Rises 17:57:08 0° 278° (W) 7,204 13.2 -25.5°
Reaches altitude 10° 18:05:07 10° 261° (W) 5,951 12.5 -26.8°
Maximum altitude 18:13:48 16° 231° (SW) 4,984 11.7 -28.4°
Drops below altitude 10° 18:21:09 10° 201° (SSW) 4,867 11.3 -29.6°
Sets 18:26:35 0° 180° (S) 5,325 11.3 -30.6°
